Theta_e
338 340 347 348 348 347 347 347 345 344 344 345 345 345 343 342 340 338 337 336 335 334 335 334 336 334 336 337 337 338 338 338 338 338 337 336 337 337 337 336 335 330 334
340 341 346 349 348 347 347 346 345 345 344 343 343 343 342 340 339 337 337 335 335 335 334 334 335 335 336 336 337 337 337 336 336 336 336 335 336 335 335 335 334 330 333
340 341 344 347 348 347 346 346 346 346 344 343 342 342 341 339 337 337 336 336 334 334 334 334 334 335 335 335 336 336 337 337 336 335 333 325 328 334 334 333 333 333 333
339 341 343 344 347 346 344 344 345 345 343 342 342 341 339 339 337 335 336 336 336 334 334 334 335 334 334 334 334 335 336 336 336 334 328 328 329 334 333 333 332 332 332
339 340 341 344 347 345 344 344 343 343 344 342 340 340 339 339 338 336 336 337 338 335 333 334 333 332 332 332 333 334 334 334 332 330 327 327 327 332 333 332 331 331 331
338 339 340 344 346 345 345 343 342 341 342 342 341 340 339 337 339 337 338 336 336 337 335 333 332 331 331 331 332 332 332 330 327 321 322 328 328 335 333 332 331 330 330
337 338 340 343 344 345 345 343 343 342 342 341 340 339 339 338 338 339 338 337 335 334 334 333 332 331 332 332 331 331 329 327 318 320 321 322 326 334 333 332 330 330 329
337 338 339 337 340 343 344 344 344 342 341 340 339 338 338 338 337 337 336 336 333 333 334 332 331 330 331 332 331 329 327 325 318 316 320 321 331 332 332 331 330 329 328
338 338 337 337 336 336 338 339 339 341 340 340 339 338 336 336 336 336 336 337 335 332 330 330 331 330 329 328 327 327 325 324 314 316 318 321 329 328 328 328 330 329 328
336 336 335 334 334 335 334 332 333 336 338 338 337 334 332 332 333 332 330 333 336 335 334 333 333 331 329 329 329 327 325 323 314 314 316 319 328 329 328 328 327 328 328
334 334 334 333 332 332 332 330 328 330 331 332 331 328 326 326 327 326 326 330 334 334 334 333 332 332 331 329 328 327 325 317 314 313 314 320 326 330 329 328 330 330 329
332 331 333 333 331 331 334 331 328 330 328 327 327 327 326 324 323 325 322 325 329 329 331 332 332 330 326 320 319 321 316 316 315 313 313 321 326 330 330 329 329 330 331
332 332 333 332 332 330 331 328 327 326 326 325 324 325 326 324 321 320 320 320 320 320 320 324 322 321 320 319 318 317 316 315 314 314 315 320 324 329 331 331 330 330 331
329 331 332 332 331 330 331 328 327 326 324 323 324 323 323 322 320 319 318 319 318 319 318 317 317 318 317 319 319 318 317 315 314 313 313 317 322 327 330 331 332 332 331
328 331 332 332 331 332 330 329 327 327 325 324 324 324 323 321 319 319 319 318 318 318 318 317 317 317 317 318 318 318 317 317 316 315 314 315 319 325 328 329 331 332 332
330 330 331 332 333 332 332 330 329 328 327 325 324 324 324 323 321 320 318 318 317 317 317 316 316 315 315 316 317 318 317 317 316 315 315 315 319 322 326 329 330 330 331
330 331 330 332 333 332 331 330 330 330 330 328 328 326 324 324 322 321 320 318 318 318 318 317 316 316 315 315 314 316 316 316 316 316 315 315 315 318 321 326 328 329 330
328 329 330 333 332 331 332 331 331 330 329 329 328 328 327 326 325 322 321 321 320 319 317 316 316 314 313 313 312 313 314 314 315 315 315 315 314 315 317 322 325 327 328
327 329 329 330 330 331 332 331 329 328 328 328 329 329 328 328 327 326 324 323 321 320 317 316 314 313 312 312 313 313 313 314 315 317 316 315 314 315 314 316 319 320 325
325 327 329 330 331 330 330 329 326 326 326 328 328 328 329 328 329 327 327 326 324 322 320 317 314 313 313 312 314 314 314 315 316 316 317 318 316 314 313 313 313 313 316
319 322 326 328 329 329 327 326 326 326 327 328 329 329 328 329 328 329 328 326 325 323 323 321 318 316 314 313 314 315 314 316 317 318 317 316 316 316 314 313 313 313 314
317 320 324 327 328 329 330 329 326 327 326 328 328 329 329 329 328 331 329 327 326 325 324 322 320 319 318 317 315 316 312 312 313 315 316 315 315 315 315 315 314 314 313
307 313 319 323 326 329 329 326 322 323 320 327 328 328 328 328 328 331 330 330 328 327 325 324 322 321 320 319 319 317 312 309 308 313 314 314 315 314 314 314 314 313 313
302 305 308 311 315 320 325 324 322 325 322 320 323 327 326 326 327 328 328 328 328 327 326 326 325 323 322 320 318 320 321 318 313 313 314 315 314 314 314 316 315 315 313
300 302 304 306 307 309 308 317 320 318 320 319 319 321 321 322 324 324 325 326 325 325 326 325 324 323 324 322 321 318 319 320 320 316 313 316 315 317 316 318 317 317 316
305 306 306 306 304 306 309 309 307 309 310 313 315 316 316 312 311 315 317 317 318 317 318 319 322 322 322 323 323 323 318 316 315 316 314 315 316 318 318 318 316 317 316
Wind_Speed
7 6 12 14 15 16 15 15 14 13 15 16 17 17 17 17 16 15 14 13 12 14 13 13 12 14 13 12 13 13 12 13 15 16 15 15 15 16 16 16 14 9 15
12 9 13 14 16 16 15 15 14 13 14 15 15 15 16 15 14 14 13 12 12 12 12 12 12 12 11 11 12 12 12 7 10 12 12 13 15 15 15 15 14 11 14
12 10 9 15 15 15 15 15 14 14 14 14 14 14 14 14 13 12 11 15 11 12 12 12 11 10 10 10 13 14 13 11 10 9 9 4 6 14 14 13 14 14 13
12 10 8 13 15 16 15 14 13 13 14 15 14 14 13 12 14 12 11 10 11 11 11 11 10 9 9 10 13 15 15 10 11 10 5 6 6 13 13 13 13 13 12
11 8 8 11 14 15 14 13 13 11 12 13 12 15 13 9 13 9 12 6 11 12 10 10 8 7 8 10 12 14 14 13 11 7 5 5 4 9 12 11 11 11 11
9 8 11 13 14 14 13 13 13 13 12 10 10 9 11 11 10 12 10 6 9 11 10 8 7 6 7 8 10 12 12 10 7 5 5 6 4 9 10 10 9 9 9
8 6 8 11 12 13 12 13 12 12 12 12 11 11 9 11 7 8 12 7 9 8 8 7 5 4 4 5 7 9 9 9 5 4 4 3 3 6 8 8 7 7 8
12 9 7 9 10 11 11 12 12 12 12 13 12 11 10 8 8 6 11 10 8 8 8 6 4 3 3 4 5 6 6 6 4 3 3 3 2 4 5 5 5 5 5
8 9 6 6 7 9 9 10 10 11 12 12 13 13 10 7 6 4 7 8 10 8 7 6 4 2 1 1 3 4 5 6 3 2 3 2 6 1 2 2 2 2 3
6 7 7 6 5 6 5 7 7 8 11 10 10 10 9 8 8 5 4 4 8 8 6 7 7 4 3 3 4 5 6 6 3 3 3 3 6 5 2 2 2 2 1
6 7 7 7 6 5 5 5 6 6 7 7 6 8 6 3 5 6 5 5 4 5 7 7 6 7 5 5 6 7 7 2 3 3 3 7 9 9 7 5 5 4 4
12 7 8 9 7 6 5 5 5 4 3 3 4 5 4 5 4 5 6 7 6 7 7 7 7 8 6 2 3 5 3 4 3 4 3 9 9 11 10 8 8 7 7
12 8 10 9 9 8 5 4 2 3 3 3 5 5 4 3 3 2 2 2 3 5 2 3 3 2 4 3 3 3 4 4 3 3 5 9 10 12 13 12 10 10 10
9 11 10 10 9 9 5 5 5 4 4 3 4 6 4 3 4 4 3 4 4 3 4 3 2 4 5 5 5 5 5 4 3 3 4 9 10 11 13 13 13 12 12
10 11 11 10 10 9 9 6 5 6 5 6 5 6 4 4 4 4 4 4 4 3 3 4 4 4 5 5 5 5 5 6 6 3 3 9 11 13 14 15 16 15 15
11 12 10 11 10 9 9 8 7 6 6 5 5 6 7 5 4 4 4 4 4 4 4 4 4 4 4 4 5 5 6 6 6 6 4 5 11 13 15 17 17 18 17
12 9 12 12 10 10 10 8 6 6 6 6 6 7 7 7 7 6 5 4 4 4 5 4 4 3 4 4 6 5 4 6 5 6 5 4 5 9 13 17 18 18 18
9 12 11 11 11 11 10 7 6 6 5 5 5 5 9 9 8 6 5 5 5 4 4 3 4 4 4 4 3 5 4 5 6 7 6 5 4 5 7 14 16 17 19
13 12 12 12 12 13 11 7 6 6 5 4 4 6 6 8 9 8 6 5 5 4 4 4 4 4 3 4 5 5 5 5 6 6 7 7 7 6 5 9 13 13 16
10 11 11 10 11 10 6 4 2 3 3 4 4 4 6 6 8 8 6 6 5 4 4 3 5 4 4 4 4 5 5 6 6 7 9 6 5 6 5 6 4 5 10
7 8 11 11 11 8 4 5 4 6 6 5 6 6 6 5 6 7 6 6 5 6 7 6 4 5 3 3 2 4 4 7 8 7 4 5 5 4 5 4 4 4 4
13 14 11 12 11 11 8 6 3 5 4 5 5 6 8 8 7 8 7 6 7 5 6 6 6 3 3 5 3 1 5 4 3 4 3 4 6 3 5 5 5 5 5
10 11 12 14 13 12 12 4 3 3 2 3 5 6 8 9 9 10 8 7 7 7 6 7 7 8 7 4 8 4 2 4 2 2 3 3 4 3 4 4 5 5 5
8 6 7 7 7 7 8 8 8 8 7 5 5 6 6 9 9 9 8 6 5 5 5 6 7 7 7 7 3 7 8 3 3 5 2 3 4 5 4 3 5 5 4
5 6 5 7 7 5 7 7 7 6 5 2 2 4 3 2 3 4 5 5 5 3 4 5 5 8 7 6 7 2 7 8 8 8 5 5 0 2 3 4 4 4 4
4 6 6 7 5 4 5 5 7 8 6 4 4 4 3 3 3 4 4 4 4 3 4 3 2 1 3 5 5 4 3 3 3 5 5 4 5 3 2 3 3 3 3
Wind_Direction
164 157 150 140 128 130 132 124 120 114 109 103 102 100 103 101 96 95 95 93 92 96 94 92 94 93 87 78 66 60 55 56 65 67 62 60 60 57 55 54 52 48 58
148 155 157 149 138 135 133 129 130 122 117 115 115 111 108 105 105 109 104 88 100 96 98 98 101 100 89 73 59 50 43 63 74 71 70 61 57 57 57 50 55 58 61
147 153 155 147 143 140 137 135 134 135 128 123 120 119 116 115 115 117 107 120 101 100 104 104 106 97 85 69 56 47 49 101 90 70 49 40 59 61 60 60 55 57 62
148 151 150 145 146 147 146 142 139 137 139 135 132 129 129 135 121 132 133 120 117 109 105 105 105 96 81 67 56 52 57 84 80 69 51 50 49 62 58 58 60 58 53
144 146 151 149 150 152 152 149 146 144 146 144 147 142 141 143 129 123 121 142 137 125 116 111 102 89 76 69 63 56 57 67 61 55 57 58 38 61 65 66 60 57 56
145 148 155 156 157 158 156 154 151 150 153 150 141 139 148 145 141 149 122 110 98 115 124 117 104 80 57 51 55 58 50 56 57 38 35 40 31 68 65 66 65 65 63
140 141 157 158 158 158 163 166 163 155 152 145 145 150 165 144 148 151 143 152 142 128 121 116 101 69 44 42 43 48 50 44 45 38 24 37 19 65 68 66 65 63 63
151 151 158 163 160 160 166 165 167 166 160 159 154 150 150 162 148 161 154 155 154 144 130 124 118 85 52 26 24 32 34 51 41 20 4 340 334 67 62 67 66 66 66
153 150 152 160 168 167 167 164 162 171 172 172 160 160 164 156 166 172 160 170 171 167 168 166 154 151 143 354 354 5 8 14 38 355 325 295 297 14 76 83 91 75 75
153 160 157 156 160 165 174 179 173 183 177 177 172 168 168 174 182 181 175 228 165 177 172 165 178 206 242 277 304 316 332 353 0 330 315 270 274 278 252 228 235 233 216
165 173 169 163 165 168 175 187 184 181 175 179 179 170 165 175 192 186 201 224 215 202 185 186 196 197 236 271 289 303 320 315 311 297 290 286 267 266 271 263 254 256 257
182 186 184 170 170 170 179 173 185 186 189 183 173 175 170 181 193 196 206 221 228 228 213 211 216 226 224 252 288 309 295 289 285 283 272 281 276 261 270 271 271 269 263
188 182 186 180 173 172 185 171 175 180 186 189 189 183 185 183 205 221 235 247 244 250 257 254 264 248 230 242 268 275 279 280 272 267 272 277 278 271 270 273 274 273 269
184 189 185 183 179 182 178 180 185 180 187 195 200 194 181 188 202 214 216 227 224 228 236 243 253 258 257 257 256 268 267 263 269 266 268 272 276 279 281 277 277 275 271
196 195 193 184 187 187 185 181 185 197 192 199 196 198 185 191 201 196 218 213 219 207 217 234 243 249 256 258 256 251 263 263 265 259 263 270 273 276 277 276 274 276 275
201 202 192 195 194 185 191 186 188 191 199 197 200 204 197 195 198 200 209 213 215 203 221 228 230 239 253 253 264 250 254 261 260 264 259 262 262 267 272 273 273 274 274
205 197 199 197 191 191 193 191 185 190 189 197 201 204 201 198 200 197 205 207 211 205 219 229 245 248 256 258 262 270 266 263 263 263 261 255 264 264 263 271 274 275 275
197 200 194 199 193 194 197 193 200 196 186 191 191 192 204 202 200 199 199 210 205 201 204 210 220 243 249 252 263 261 262 262 263 259 263 255 248 255 260 261 264 267 269
201 205 200 195 194 199 202 197 198 194 198 214 195 194 199 203 200 201 209 212 197 202 200 206 223 207 240 252 253 259 259 257 257 261 253 249 236 240 243 254 254 255 259
207 207 206 195 197 192 190 188 173 194 213 212 218 222 200 203 207 202 212 211 198 205 216 198 216 209 223 248 274 276 267 259 251 251 257 264 242 234 237 250 264 266 261
214 203 195 184 193 168 167 178 202 220 213 224 219 216 218 215 203 212 205 198 184 201 216 205 203 221 249 217 310 278 263 254 257 255 245 244 256 249 246 246 245 249 264
209 206 197 193 185 189 186 193 173 186 210 219 212 222 220 217 204 218 207 201 196 202 209 206 202 217 228 176 221 264 305 319 305 250 245 245 257 241 259 248 238 247 249
218 201 191 192 191 191 191 146 100 91 71 168 215 227 221 209 211 221 207 206 205 199 206 207 206 211 235 204 200 202 256 250 294 284 249 233 251 238 254 265 259 248 250
228 199 186 184 180 176 170 183 188 201 200 202 195 207 209 201 211 216 214 212 200 190 214 209 205 210 214 231 184 218 233 203 252 301 264 260 227 243 260 283 284 292 268
189 196 178 143 138 147 169 183 194 209 219 201 197 214 208 149 168 174 193 204 208 210 211 215 200 215 212 231 228 183 223 236 232 248 266 293 212 252 257 254 263 288 300
117 125 133 126 108 110 131 150 189 207 213 196 203 187 162 131 115 102 103 101 90 103 92 52 342 332 276 244 256 232 202 201 202 230 258 264 257 285 242 256 268 254 307